Regional Weather Roundup
Issued by NWS Sioux Falls, SD

Home | Current Version | Previous Version | Text Only | Print | Product List | Glossary Off
Versions: 1 2 3 4 5 6 7 8 9 10 11 12 13 14 15 16 17 18 19 20 21 22 23 24 25 26 27 28 29 30 31 32 33 34 35 36 37 38 39 40 41 42 43 44 45 46 47 48 49 50

000
ASUS43 KFSD 261102
RWRFSD

WEATHER ROUNDUP FOR SE SOUTH DAKOTA/SW MINNESOTA/NW IOWA
NATIONAL WEATHER SERVICE SIOUX FALLS SD
600 AM CDT THU MAY 26 2016

NOTE: "FAIR" INDICATES FEW OR NO CLOUDS BELOW 12,000 FEET WITH NO
SIGNIFICANT WEATHER AND OR OBSTRUCTIONS TO VISIBILITY.


SDZ038>040-050-052>070-261200-
SOUTHEAST SOUTH DAKOTA

CITY           SKY/WX    TMP DP  RH WIND       PRES   REMARKS
BROOKINGS      CLEAR     52  49  89 W3        29.85R
CHAMBERLAIN    NOT AVBL
HURON          CLEAR     49  47  93 CALM      29.85R
MADISON        FAIR      54  54 100 NW9       29.86R
MITCHELL       CLEAR     56  52  86 W5        29.87R
SIOUX FALLS    PTCLDY    52  48  86 E5        29.84S
WINNER         FAIR      51  47  86 CALM      29.87R
YANKTON        CLEAR     54  52  94 N6        29.84F
$$

MNZ071-072-080-081-089-090-097-098-261200-
SOUTHWEST MINNESOTA

CITY           SKY/WX    TMP DP  RH WIND       PRES   REMARKS
FAIRMONT       CLOUDY    61  50  67 SW10      29.83R
JACKSON        CLOUDY    61  54  77 SW12      29.84R
LUVERNE        CLEAR     54  52  94 SW5       29.85S
MARSHALL       MOCLDY    60  53  77 CALM      29.82R
MONTEVIDEO     MOCLDY    61  52  72 W3        29.82R
PIPESTONE      PTCLDY    57  52  82 NW6       29.84S
REDWOOD FALLS  MOCLDY    61  53  75 SW8       29.78S
TRACY          CLOUDY    60  55  81 W6        29.82F
WINDOM         CLOUDY    57  55  94 CALM      29.82S
WORTHINGTON    CLOUDY    59  55  87 SW12      29.84F
$$

IAZ001>003-012>014-020>022-031-032-NEZ013-014-SDZ071-261200-
NORTHWEST IOWA

CITY           SKY/WX    TMP DP  RH WIND       PRES   REMARKS
DENISON        CLEAR     55  55 100 CALM      29.84S
ESTHERVILLE    CLOUDY    57  56  96 S5        29.84S
SIOUX CITY     FOG       55  53  93 CALM      29.84R VSB 1/2
SPENCER        CLOUDY    58  54  86 SW8       29.85R
STORM LAKE     CLOUDY    55  55 100 CALM      29.87R
$$

ABBREVIATIONS USED IN REMARKS
   TC - TEMPERATURE IN CELSIUS
  WCI - WIND CHILL INDEX
   HX - HEAT INDEX
  VSB - VISIBILITY




USA.gov is the U.S. government's official web portal to all federal, state and local government web resources and services.